Le nostre stazioni meteo in Italia

Pubblicità
Il mio iltempo24.it
Lulea/Kallax, Svezia (2186): Temperatura & dewpoint: 07.12.2018 22:00:00 - 13.12.2018 22:00:00 (CET)Lulea/Kallax, Svezia (2186): velocità del vento & gusts: 07.12.2018 22:00:00 - 13.12.2018 22:00:00 (CET)Lulea/Kallax, Svezia (2186): direzione del vento: 07.12.2018 22:00:00 - 13.12.2018 22:00:00 (CET)Lulea/Kallax, Svezia (2186): reduced air pressure: 07.12.2018 22:00:00 - 13.12.2018 22:00:00 (CET)Lulea/Kallax, Svezia (2186): visibility: 07.12.2018 22:00:00 - 13.12.2018 22:00:00 (CET)Lulea/Kallax, Svezia (2186): precipitazioni: 07.12.2018 22:00:00 - 13.12.2018 22:00:00 (CET)
Data & Tempo tt [°C] td [°C] ff [km/h] ff [kn] fx [km/h] fx [kn] dd ppp [hPa] vv [km] rr [mm]
13.12.2018 22:00:00 -19,2 -21,2 2 1 7 4 - 1030,9 10 0,0
13.12.2018 21:00:00 -19,4 -21,6 5 3 7 4 NO 1031,0 10 0,0
13.12.2018 20:00:00 -18,6 -20,4 0 0 4 2 N 1030,8 10 0,0
13.12.2018 19:00:00 -19,0 -20,9 8 4 7 4 NO 1031,2 10 0,0
13.12.2018 18:00:00 -18,2 -20,0 0 0 7 4 N 1031,1 10 0,0
13.12.2018 17:00:00 -18,5 -20,3 2 1 7 4 NO 1031,3 10 0,0
13.12.2018 16:00:00 -17,7 -19,6 4 2 7 4 NO 1031,4 10 0,0
13.12.2018 15:00:00 -18,1 -20,0 2 1 7 4 - 1031,1 10 0,0
13.12.2018 14:00:00 -17,7 -19,5 2 1 7 4 NNO 1031,4 10 0,0
13.12.2018 13:00:00 -17,8 -19,7 5 3 7 4 NO 1031,4 10 0,0
13.12.2018 12:00:00 -17,8 -19,7 4 2 7 4 NNO 1031,6 10 0,0
13.12.2018 11:00:00 -17,8 -19,7 4 2 7 4 NO 1031,8 10 0,0
13.12.2018 10:00:00 -18,0 -19,8 4 2 11 6 NNO 1031,7 10 0,0
13.12.2018 09:00:00 -18,2 -20,1 5 3 7 4 NNO 1031,8 10 0,0
13.12.2018 08:00:00 -17,0 -18,6 4 2 7 4 - 1031,7 10 0,0
13.12.2018 07:00:00 -16,3 -18,0 4 2 7 4 NO 1031,7 10 0,0
13.12.2018 06:00:00 -16,3 -18,0 5 3 7 4 SO 1031,6 10 0,0
13.12.2018 05:00:00 -17,1 -18,9 4 2 7 4 NO 1031,8 10 0,0
13.12.2018 04:00:00 -17,1 -18,9 2 1 4 2 - 1032,5 10 0,0
13.12.2018 03:00:00 -16,7 -18,2 0 0 7 4 N 1032,6 10 0,0
13.12.2018 02:00:00 -15,9 -17,4 4 2 7 4 NO 1032,6 10 0,0
13.12.2018 01:00:00 -16,0 -17,4 0 0 7 4 N 1033,0 10 0,0
13.12.2018 00:00:00 -15,7 -17,2 2 1 7 4 NO 1033,4 10 0,0
12.12.2018 23:00:00 -15,8 -17,5 4 2 7 4 NO 1033,1 10 0,0
12.12.2018 22:00:00 -15,4 -16,9 0 0 7 4 N 1033,2 10 0,0
12.12.2018 21:00:00 -14,7 -16,0 5 3 7 4 NO 1033,3 10 0,0
12.12.2018 20:00:00 -14,6 -15,9 0 0 7 4 N 1033,6 10 0,0
12.12.2018 19:00:00 -13,8 -15,2 4 2 7 4 NNO 1033,3 10 0,0
12.12.2018 18:00:00 -13,2 -14,5 4 2 7 4 NO 1033,2 10 0,0
12.12.2018 17:00:00 -13,5 -14,7 8 4 14 8 NNO 1033,1 10 0,0
12.12.2018 16:00:00 -13,2 -14,4 8 4 11 6 N 1032,8 10 0,0
12.12.2018 15:00:00 -12,5 -13,7 4 2 11 6 NNO 1032,7 10 0,0
12.12.2018 14:00:00 -11,9 -13,3 2 1 7 4 NNO 1032,3 10 0,0
12.12.2018 13:00:00 -11,7 -13,0 5 3 14 8 NNO 1032,2 10 0,0
12.12.2018 12:00:00 -11,1 -12,6 5 3 14 8 NNO 1032,1 10 0,0
12.12.2018 11:00:00 -11,8 -13,1 11 6 14 8 NO 1031,8 10 0,0
12.12.2018 10:00:00 -10,9 -12,4 5 3 14 8 NNO 1031,6 10 0,0
12.12.2018 09:00:00 -11,3 -12,7 8 4 18 10 NNO 1031,0 10 0,0
12.12.2018 08:00:00 -11,1 -12,7 9 5 14 8 NNO 1030,9 10 0,0
12.12.2018 07:00:00 -10,4 -11,9 9 5 14 8 NNO 1030,6 10 0,0
12.12.2018 06:00:00 -9,6 -11,2 5 3 14 8 NNO 1029,8 10 0,0
12.12.2018 05:00:00 -9,8 -11,3 13 7 22 12 NO 1029,5 10 0,0
12.12.2018 04:00:00 -8,9 -10,4 11 6 22 12 N 1029,1 10 0,0
12.12.2018 03:00:00 -9,0 -10,5 11 6 18 10 NNO 1028,9 10 0,0
12.12.2018 02:00:00 -8,8 -10,4 13 7 22 12 NNO 1028,4 10 0,0
12.12.2018 01:00:00 -8,5 -10,1 11 6 22 12 NNO 1028,0 10 0,0
12.12.2018 00:00:00 -7,9 -9,5 15 8 22 12 NNO 1027,3 10 0,0
11.12.2018 23:00:00 -7,5 -9,1 9 5 22 12 NNO 1026,9 10 0,0
11.12.2018 22:00:00 -7,4 -8,9 9 5 22 12 NO 1026,4 10 0,0
11.12.2018 21:00:00 -7,2 -8,7 16 9 22 12 NO 1026,1 10 0,0
11.12.2018 20:00:00 -6,9 -8,3 11 6 14 8 NO 1025,7 10 0,0
11.12.2018 19:00:00 -6,6 -8,0 9 5 22 12 NNO 1025,5 10 0,0
11.12.2018 18:00:00 -6,0 -7,4 13 7 22 12 NNO 1024,9 10 0,0
11.12.2018 17:00:00 -6,0 -7,4 9 5 18 10 NNO 1024,4 10 0,0
11.12.2018 16:00:00 -4,8 -6,5 11 6 22 12 N 1023,7 10 0,0
11.12.2018 15:00:00 -4,3 -5,8 15 8 22 12 NNO 1023,0 10 0,0
11.12.2018 14:00:00 -3,3 -5,0 15 8 22 12 NNO 1022,5 10 0,0
11.12.2018 13:00:00 -2,4 -4,1 15 8 32 18 NNO 1021,9 10 0,0
11.12.2018 12:00:00 -1,7 -3,4 15 8 32 18 N 1021,2 10 0,0
11.12.2018 11:00:00 -1,2 -2,8 11 6 18 10 N 1020,4 10 0,0
11.12.2018 10:00:00 -1,0 -2,4 11 6 18 10 N 1019,9 10 0,0
11.12.2018 09:00:00 -1,0 -2,6 13 7 22 12 N 1019,3 10 0,0
11.12.2018 08:00:00 -1,3 -2,6 13 7 22 12 NNO 1018,7 10 0,0
11.12.2018 07:00:00 -1,7 -3,0 8 4 18 10 NNO 1018,0 10 0,0
11.12.2018 06:00:00 -2,3 -3,4 13 7 18 10 NNO 1017,5 10 0,0
11.12.2018 05:00:00 -2,4 -3,8 13 7 25 14 NNO 1016,9 10 0,0
11.12.2018 04:00:00 -2,4 -3,8 15 8 29 16 N 1016,3 10 0,0
11.12.2018 03:00:00 -2,3 -3,7 18 10 32 18 N 1015,6 10 0,0
11.12.2018 02:00:00 -2,2 -3,5 13 7 29 16 N 1014,9 10 0,0
11.12.2018 01:00:00 -2,0 -3,3 11 6 25 14 N 1014,3 10 0,0
11.12.2018 00:00:00 -1,9 -3,3 15 8 25 14 N 1013,7 10 0,0
10.12.2018 23:00:00 -1,7 -2,8 9 5 22 12 N 1012,9 10 0,0
10.12.2018 22:00:00 -1,5 -2,5 11 6 22 12 N 1012,1 10 0,0
10.12.2018 21:00:00 -1,2 -2,0 11 6 25 14 N 1011,1 10 0,0
10.12.2018 20:00:00 -1,0 -1,7 13 7 25 14 N 1010,2 5 0,0
10.12.2018 19:00:00 -0,7 -1,4 13 7 25 14 N 1009,4 10 0,0
10.12.2018 18:00:00 -0,1 -0,5 9 5 22 12 N 1008,2 10 0,0
10.12.2018 17:00:00 0,3 0,0 8 4 18 10 N 1007,5 10 0,0
10.12.2018 16:00:00 0,6 0,3 5 3 14 8 NNE 1006,5 7 0,0
10.12.2018 15:00:00 0,5 0,2 8 4 14 8 NNE 1005,2 6 0,0
10.12.2018 14:00:00 0,4 0,1 8 4 14 8 NNE 1004,3 3,0 0,0
10.12.2018 13:00:00 0,3 0,2 5 3 11 6 NNE 1003,2 5 0,0
10.12.2018 12:00:00 0,7 0,4 5 3 11 6 NNE 1002,4 2,0 0,0
10.12.2018 11:00:00 0,8 0,5 4 2 11 6 - 1001,6 1,7 0,1
10.12.2018 10:00:00 0,9 0,6 4 2 7 4 NE 1000,4 8 0,0
10.12.2018 09:00:00 0,8 0,5 4 2 11 6 - 999,4 8 0,0
10.12.2018 08:00:00 0,9 0,6 4 2 14 8 E 998,5 8 0,2
10.12.2018 07:00:00 0,9 0,6 4 2 11 6 E 997,3 6 0,2
10.12.2018 06:00:00 1,1 0,8 4 2 7 4 - 996,4 8 0,4
10.12.2018 05:00:00 1,0 0,7 5 3 14 8 ESE 995,6 8 0,8
10.12.2018 04:00:00 1,0 0,7 9 5 14 8 ENE 994,8 6 0,5
10.12.2018 03:00:00 0,5 0,2 9 5 14 8 ENE 994,1 8 0,3
10.12.2018 02:00:00 0,4 0,1 8 4 22 12 E 993,6 8 0,2
10.12.2018 01:00:00 1,0 0,7 8 4 22 12 E 993,0 7 0,4
10.12.2018 00:00:00 0,9 0,5 16 9 25 14 SE 992,5 7 0,3
09.12.2018 23:00:00 1,4 1,1 18 10 25 14 SE 991,8 8 0,0
09.12.2018 22:00:00 1,7 1,4 18 10 29 16 SE 991,2 4,9 0,2
09.12.2018 21:00:00 1,6 1,5 16 9 25 14 SE 990,6 5 0,6
09.12.2018 20:00:00 1,5 1,4 13 7 22 12 SE 990,1 6 1,0
09.12.2018 19:00:00 1,7 1,4 16 9 25 14 SE 989,5 10 1,0
09.12.2018 18:00:00 1,8 1,7 21 11 25 14 SE 989,0 4,8 0,6
09.12.2018 17:00:00 1,9 1,6 16 9 22 12 SE 988,2 4,4 0,8
09.12.2018 16:00:00 1,7 1,4 13 7 22 12 ESE 987,9 6 2,0
09.12.2018 15:00:00 0,8 0,7 11 6 14 8 ENE 987,4 6 0,9
09.12.2018 14:00:00 0,2 -0,1 11 6 32 18 SE 987,4 3,0 0,5
09.12.2018 13:00:00 1,2 0,6 13 7 22 12 ESE 986,9 8 0,7
09.12.2018 12:00:00 1,1 0,8 11 6 22 12 ESE 986,8 10 0,9
09.12.2018 11:00:00 1,3 1,0 13 7 22 12 ESE 986,8 10 0,2
09.12.2018 10:00:00 1,1 0,8 8 4 14 8 ESE 986,6 10 0,0
09.12.2018 09:00:00 1,1 1,0 11 6 14 8 SSE 986,3 10 0,2
09.12.2018 08:00:00 0,7 0,6 0 0 7 4 N 985,8 2,9 0,4
09.12.2018 07:00:00 0,5 0,4 5 3 11 6 ENE 985,1 1,5 0,2
09.12.2018 06:00:00 0,5 0,4 5 3 11 6 E 984,7 10 0,0
09.12.2018 05:00:00 0,2 0,1 5 3 11 6 E 984,4 9 0,2
09.12.2018 04:00:00 0,1 0,0 8 4 14 8 ESE 984,3 2,6 0,3
09.12.2018 03:00:00 0,0 -0,3 9 5 14 8 ESE 984,3 2,0 0,4
09.12.2018 02:00:00 -0,1 -0,4 9 5 14 8 E 984,5 1,4 0,6
09.12.2018 01:00:00 -0,3 -0,6 8 4 22 12 E 984,9 1,0 1,0
09.12.2018 00:00:00 -0,4 -0,7 13 7 22 12 E 985,5 1,3 1,0
08.12.2018 23:00:00 -0,7 -1,0 8 4 22 12 E 986,1 1,1 1,0
08.12.2018 22:00:00 -0,8 -1,1 11 6 25 14 E 986,9 0,7 2,0
08.12.2018 21:00:00 -0,7 -1,0 13 7 25 14 E 987,6 1,2 1,0
08.12.2018 20:00:00 -0,7 -1,0 13 7 25 14 ENE 988,4 0,9 2,0
08.12.2018 19:00:00 -0,8 -1,1 11 6 22 12 E 989,2 1,2 1,0
08.12.2018 18:00:00 -0,6 -0,9 9 5 18 10 E 989,9 2,4 0,5
08.12.2018 17:00:00 -0,5 -0,8 9 5 18 10 E 990,5 2,8 0,3
08.12.2018 16:00:00 -0,4 -0,7 5 3 14 8 E 990,9 3,0 0,4
08.12.2018 15:00:00 -0,7 -1,0 5 3 11 6 E 991,8 6 0,4
08.12.2018 14:00:00 -2,8 -3,3 4 2 7 4 NE 992,4 1,8 0,1
08.12.2018 13:00:00 -4,0 -4,5 0 0 7 4 N 993,0 3,6 0,1
08.12.2018 12:00:00 -4,8 -5,3 0 0 7 4 N 993,2 10 0,0
08.12.2018 11:00:00 -5,3 -5,8 4 2 7 4 NNO 993,7 10 0,0
08.12.2018 10:00:00 -5,6 -6,1 4 2 7 4 NNO 994,1 10 0,0
08.12.2018 09:00:00 -5,9 -6,6 2 1 7 4 NNO 994,5 10 0,0
08.12.2018 08:00:00 -5,8 -6,5 4 2 7 4 N 994,7 10 0,0
08.12.2018 07:00:00 -6,2 -6,7 2 1 7 4 - 994,8 10 0,0
08.12.2018 06:00:00 -6,2 -6,9 2 1 7 4 N 995,1 10 0,0
08.12.2018 05:00:00 -6,4 -7,1 2 1 7 4 N 995,1 10 0,0
08.12.2018 04:00:00 -6,8 -7,6 4 2 7 4 N 995,6 10 0,0
08.12.2018 03:00:00 -7,2 -8,0 4 2 7 4 NNO 995,9 9 0,0
08.12.2018 02:00:00 -7,5 -8,3 2 1 7 4 - 996,3 10 0,0
08.12.2018 01:00:00 -7,9 -8,8 2 1 7 4 - 997,0 10 0,0
08.12.2018 00:00:00 -8,2 -9,1 4 2 11 6 NO 997,4 10 0,0
07.12.2018 23:00:00 -8,7 -9,8 2 1 11 6 - 997,7 10 0,0
07.12.2018 22:00:00 -8,9 -10,0 4 2 7 4 - 998,0 10 0,0

tt = Temperatura
td = dewpoint
ff = velocità del vento
fx = gusts
dd = direzione del vento
ppp = reduced air pressure
vv = visibility
rr = precipitazioni

Stazioni seguenti

WeatherPro
AMSI
MeteoEarth